TimeEST,TemperatureF,Dew PointF,Humidity,Sea Level PressureIn,VisibilityMPH,Wind Direction,Wind SpeedMPH,Gust SpeedMPH,PrecipitationIn,Events,Conditions,WindDirDegrees,DateUTC
12:56 AM,6.1,3.9,91,30.14,8.0,Calm,Calm,-,N/A,,Clear,0,2013-01-02 05:56:00
1:56 AM,6.1,3.0,87,30.14,6.0,Calm,Calm,-,N/A,,Clear,0,2013-01-02 06:56:00
2:56 AM,6.1,3.0,87,30.15,7.0,Calm,Calm,-,N/A,,Clear,0,2013-01-02 07:56:00
3:56 AM,3.9,1.9,91,30.15,4.0,Calm,Calm,-,N/A,,Clear,0,2013-01-02 08:56:00
4:56 AM,7.0,5.0,92,30.16,6.0,Calm,Calm,-,N/A,,Clear,0,2013-01-02 09:56:00
5:56 AM,5.0,1.9,87,30.17,6.0,WNW,3.5,-,N/A,,Clear,290,2013-01-02 10:56:00
6:56 AM,7.0,5.0,92,30.18,9.0,West,6.9,-,N/A,,Clear,270,2013-01-02 11:56:00
7:56 AM,3.0,1.0,91,30.20,5.0,WSW,4.6,-,N/A,,Clear,250,2013-01-02 12:56:00
8:56 AM,3.9,3.0,96,30.20,4.0,Calm,Calm,-,N/A,,Clear,0,2013-01-02 13:56:00
9:56 AM,14.0,10.9,88,30.22,8.0,West,6.9,-,N/A,,Clear,260,2013-01-02 14:56:00
10:56 AM,15.1,10.9,84,30.25,8.0,West,5.8,-,N/A,,Clear,260,2013-01-02 15:56:00
11:56 AM,18.0,12.0,78,30.25,10.0,West,6.9,-,N/A,,Clear,270,2013-01-02 16:56:00
12:56 PM,19.9,12.0,71,30.24,10.0,West,4.6,-,N/A,,Partly Cloudy,280,2013-01-02 17:56:00
1:56 PM,21.0,12.9,71,30.23,10.0,WNW,8.1,-,N/A,,Clear,300,2013-01-02 18:56:00
2:56 PM,19.9,12.0,71,30.22,10.0,NW,4.6,-,N/A,,Partly Cloudy,320,2013-01-02 19:56:00
3:56 PM,16.0,10.0,77,30.24,10.0,WNW,4.6,-,N/A,,Clear,300,2013-01-02 20:56:00
4:56 PM,15.1,8.1,74,30.24,10.0,Calm,Calm,-,N/A,,Clear,0,2013-01-02 21:56:00
5:56 PM,12.0,8.1,84,30.25,9.0,WNW,3.5,-,N/A,,Clear,300,2013-01-02 22:56:00
6:56 PM,10.0,7.0,87,30.26,8.0,WNW,3.5,-,N/A,,Clear,290,2013-01-02 23:56:00
7:56 PM,14.0,10.0,84,30.28,8.0,Calm,Calm,-,N/A,,Clear,0,2013-01-03 00:56:00
8:56 PM,12.0,9.0,88,30.27,8.0,Calm,Calm,-,N/A,,Clear,0,2013-01-03 01:56:00
9:56 PM,9.0,6.1,88,30.27,5.0,Calm,Calm,-,N/A,,Clear,0,2013-01-03 02:56:00
10:56 PM,7.0,3.9,87,30.27,4.0,Calm,Calm,-,N/A,,Clear,0,2013-01-03 03:56:00
11:11 PM,6.8,3.2,85,30.19,2.0,Calm,Calm,-,N/A,,Clear,0,2013-01-03 04:11:00
11:26 PM,6.8,3.2,85,30.18,3.0,Calm,Calm,-,N/A,,Clear,0,2013-01-03 04:26:00
11:48 PM,5.0,3.2,92,30.19,2.0,Calm,Calm,-,N/A,,Clear,0,2013-01-03 04:48:00
11:56 PM,6.1,3.0,87,30.25,2.0,Calm,Calm,-,N/A,,Clear,0,2013-01-03 04:56:00